Regional Weather Roundup
Issued by NWS

Home | Current Version | Previous Version | Graphics & Text | Print | Product List | Glossary On
Versions: 1 2 3 4 5 6 7 8 9 10 11 12 13 14 15 16 17 18 19 20 21 22 23 24 25 26 27 28 29 30 31 32 33 34 35 36 37 38 39 40 41 42 43 44 45 46 47 48 49 50
000
ASUS44 KMEG 010000
RWRTN
TENNESSEE HOURLY STATE WEATHER ROUNDUP
NATIONAL WEATHER SERVICE MEMPHIS TN
700 PM CDT FRI OCT 31 2014

TNZ002-004-019-021-049-052-054-088>092-010100-
WEST TENNESSEE

CITY           SKY/WX    TMP DP  RH WIND       PRES   REMARKS
MEMPHIS INTL   CLEAR     48  21  34 N14G26    30.26R
NWS MEMPHIS      N/A     47 N/A N/A MISG        N/A
JACKSON        CLEAR     44  24  45 N16G24    30.24R
DYERSBURG      CLEAR     43  18  36 N12G18    30.29R
UNION CITY     CLEAR     39  23  52 N8        30.25R WCI  34
PARIS          CLEAR     39  23  52 N7        30.23R WCI  34
LEXINGTON      CLEAR     41  23  48 N8        30.20R
SAVANNAH       CLEAR     43  25  49 N13       30.20R
$$

TNZ008-025-027-028-033-062-065-066-010100-
NORTH MIDDLE TENNESSEE

CITY           SKY/WX    TMP DP  RH WIND       PRES   REMARKS
NASHVILLE      MOCLDY    42  26  53 NW15G25   30.14R
CLARKSVILLE    CLOUDY    43  24  47 NW24G32   30.17R
COOKEVILLE     PTCLDY    37  34  87 NW5       30.06R WCI  34
CROSSVILLE     CLOUDY    36  31  82 NW13G23   30.01S WCI  27
$$

TNZ061-075-076-078-094-096-097-010100-
SOUTH MIDDLE TENNESSEE

CITY           SKY/WX    TMP DP  RH WIND       PRES   REMARKS
WINCHESTER     MOCLDY    39  36  87 N8        30.09R WCI  34
SHELBYVILLE    PTCLDY    39  28  65 NW17      30.12R WCI  30
$$

TNZ017-018-042-046-047-010100-
NORTHEAST TENNESSEE

CITY           SKY/WX    TMP DP  RH WIND       PRES   REMARKS
TRI CITIES     LGT RAIN  45  43  93 W8        29.86S
ELIZABETHTON   LGT RAIN  43  41  93 SW3       29.86S
$$

TNZ012-013-036-069-073-074-010100-
CENTRAL EAST TENNESSEE

CITY           SKY/WX    TMP DP  RH WIND       PRES   REMARKS
KNOXVILLE      LGT RAIN  42  35  76 NW15G29   29.94R
OAK RIDGE      CLOUDY    44  34  67 MISG      29.98R
GATLINBURG     CLOUDY    45  43  93 NW9       29.91R
$$

TNZ083-085-099-010100-
SOUTHEAST TENNESSEE

CITY           SKY/WX    TMP DP  RH WIND       PRES   REMARKS
CHATTANOOGA    CLOUDY    43  32  65 NW13G29   30.06R
$$

SKY/WX REPORTED AS FAIR MEANS FEW OR NO CLOUDS BELOW
12 THOUSAND FEET.




USA.gov is the U.S. government's official web portal to all federal, state and local government web resources and services.